コイアス彗星

P/2016 P5 ( COIAS )

English version
Home page
Updated on March 22, 2025

---------------------------------------------------------------------

・ プロフィール

発見日 2016年8月1日
発見光度 24.1等
発見者 H. Fukuyama (Come On! Impacting ASteroids (COIAS))

・ 軌道要素

                    Epoch = 2013 Mar.  9.0 TT
     T = 2013 Mar.  2.08118 TT        Peri. =  33.49216
     e = 0.0578391                    Node  = 185.52965 2000.0
     q = 4.4265430 AU                 Incl. =   7.03701
       a =  4.6982876 AU   n = 0.09678202   P =  10.18 years

・ 光度変化

        m1 = 13.0 + 5 logΔ + 10.0 log r

---------------------------------------------------------------------

軌道要素は、CBET 5529に掲載されたものです。
光度グラフはComet for Windowsで作成したものです。

---------------------------------------------------------------------

Copyright(C) Seiichi Yoshida (comet@aerith.net). All rights reserved.